www.pogodaiklimat.ru

Погода и климат >> Архив погоды >> Италия >> Мартина-Франка


ПОГОДА в Мартина-Франка

  • Прогноз погоды в Мартина-Франка
  • Монитор погоды в Мартина-Франка

АРХИВ ПОГОДЫ в Мартина-Франка

Время (UTC), дата Ветер
(напр.,м/с)
 
Видим.   Явления Облачность Т
(С)
Тd
(С)
f
(%)
Тe
(С)
Тes
(С)
Комфортность P
(гПа)
Po
(гПа)
Тmin
(С)
Tmax
(С)
R
(мм)
R24
(мм)
S
(см)
22 17.03 0 н/о н/о 963.2
23 17.03 0 н/о н/о 962.9
00 18.03 0 н/о н/о 962.6
01 18.03 0 н/о н/о 962.2
02 18.03 0 н/о н/о 961.6
03 18.03 0 н/о н/о 961.5
04 18.03 0 н/о н/о 961.4
05 18.03 0 н/о н/о 961.4
06 18.03 0 н/о н/о 961.5 1
07 18.03 0 н/о н/о 961.6
08 18.03 0 н/о н/о 962.0
09 18.03 0 н/о н/о 962.2
10 18.03 0 н/о н/о 962.3
11 18.03 0 н/о н/о 962.4
12 18.03 0 н/о н/о 962.2
13 18.03 0 н/о н/о 961.9
14 18.03 0 н/о н/о 961.6
15 18.03 0 н/о н/о 961.6
16 18.03 0 н/о н/о 961.6
17 18.03 0 н/о н/о 962.2
18 18.03 0 н/о н/о 962.6 +15.0
19 18.03 0 н/о н/о 963.1
20 18.03 0 н/о н/о 963.4
21 18.03 0 н/о н/о 963.6
22 18.03 0 н/о н/о 963.3
23 18.03 0 н/о н/о 963.5
00 19.03 0 н/о н/о 963.6
01 19.03 0 н/о н/о 963.3
02 19.03 0 н/о н/о 962.9
03 19.03 0 н/о н/о 963.0
04 19.03 0 н/о н/о 963.3
05 19.03 0 н/о н/о 963.4
06 19.03 0 н/о н/о 963.7 1
07 19.03 0 н/о н/о 963.8
08 19.03 0 н/о н/о 964.3
09 19.03 0 н/о н/о 964.5
10 19.03 0 н/о н/о 964.7
11 19.03 0 н/о н/о 964.7
12 19.03 0 н/о н/о 964.7
13 19.03 0 н/о н/о 964.3
14 19.03 0 н/о н/о 964.2
15 19.03 0 н/о н/о 964.3
16 19.03 0 н/о н/о 964.5
17 19.03 0 н/о н/о 965.1
18 19.03 0 н/о н/о 965.7
19 19.03 0 н/о н/о 966.5
20 19.03 0 н/о н/о 966.8
21 19.03 0 н/о н/о 967.3
22 19.03 0 н/о н/о 967.4
23 19.03 0 н/о н/о 967.4
00 20.03 0 н/о н/о 967.5
01 20.03 0 н/о н/о 967.8
02 20.03 0 н/о н/о 967.6
03 20.03 0 н/о н/о 967.5
04 20.03 0 н/о н/о 967.4
05 20.03 0 н/о н/о 967.7
06 20.03 0 н/о н/о 968.1 +7.9 1
07 20.03 0 н/о н/о 968.5
08 20.03 0 н/о н/о 969.0
09 20.03 0 н/о н/о 969.5
10 20.03 0 н/о н/о 969.8
11 20.03 0 н/о н/о 969.3
12 20.03 0 н/о н/о 969.4
13 20.03 0 н/о н/о
14 20.03 0 н/о н/о
15 20.03 0 н/о н/о
16 20.03 0 н/о н/о
17 20.03 0 н/о н/о
18 20.03 0 н/о н/о +10.8
19 20.03 0 н/о н/о
20 20.03 0 н/о н/о
21 20.03 0 н/о н/о
22 20.03 0 н/о н/о
23 20.03 0 н/о н/о
00 21.03 0 н/о н/о
01 21.03 0 н/о н/о
02 21.03 0 н/о н/о
03 21.03 0 н/о н/о
04 21.03 0 н/о н/о
05 21.03 0 н/о н/о
06 21.03 0 н/о н/о +6.8 1
07 21.03 0 н/о н/о
08 21.03 0 н/о н/о
09 21.03 0 н/о н/о
10 21.03 0 н/о н/о
11 21.03 0 н/о н/о
12 21.03 0 н/о н/о
13 21.03 0 н/о н/о
14 21.03 0 н/о н/о
15 21.03 0 н/о н/о
17 21.03 0 н/о н/о
18 21.03 0 н/о н/о
19 21.03 0 н/о н/о
20 21.03 0 н/о н/о
21 21.03 0 н/о н/о
22 21.03 0 н/о н/о
23 21.03 0 н/о н/о
00 22.03 0 н/о н/о
01 22.03 0 н/о н/о
02 22.03 0 н/о н/о
03 22.03 0 н/о н/о
04 22.03 0 н/о н/о
05 22.03 0 н/о н/о
06 22.03 0 н/о н/о 1
07 22.03 0 н/о н/о
08 22.03 0 н/о н/о
09 22.03 0 н/о н/о
10 22.03 0 н/о н/о
11 22.03 0 н/о н/о
12 22.03 0 н/о н/о
13 22.03 0 н/о н/о
14 22.03 0 н/о н/о
15 22.03 0 н/о н/о
16 22.03 0 н/о н/о
17 22.03 0 н/о н/о
18 22.03 0 н/о н/о +14.3
19 22.03 0 н/о н/о
20 22.03 0 н/о н/о
21 22.03 0 н/о н/о
22 22.03 0 н/о н/о
23 22.03 0 н/о н/о
00 23.03 0 н/о н/о
01 23.03 0 н/о н/о
02 23.03 0 н/о н/о
03 23.03 0 н/о н/о
04 23.03 0 н/о н/о
05 23.03 0 н/о н/о
06 23.03 0 н/о н/о 1
07 23.03 0 н/о н/о
08 23.03 0 н/о н/о
09 23.03 0 н/о н/о
10 23.03 0 н/о н/о
11 23.03 0 н/о н/о
12 23.03 0 н/о н/о
13 23.03 0 н/о н/о
14 23.03 0 н/о н/о
15 23.03 0 н/о н/о
16 23.03 0 н/о н/о
17 23.03 0 н/о н/о
18 23.03 0 н/о н/о
19 23.03 0 н/о н/о
20 23.03 0 н/о н/о
21 23.03 0 н/о н/о
22 23.03 0 н/о н/о
23 23.03 0 н/о н/о
00 24.03 0 н/о н/о
01 24.03 0 н/о н/о
02 24.03 0 н/о н/о
03 24.03 0 н/о н/о
04 24.03 0 н/о н/о
05 24.03 0 н/о н/о
06 24.03 0 н/о н/о 1
07 24.03 0 н/о н/о
08 24.03 0 н/о н/о
09 24.03 0 н/о н/о
10 24.03 0 н/о н/о
11 24.03 0 н/о н/о
12 24.03 0 н/о н/о
13 24.03 0 н/о н/о
14 24.03 0 н/о н/о
15 24.03 0 н/о н/о
16 24.03 0 н/о н/о
17 24.03 0 н/о н/о
18 24.03 0 н/о н/о
19 24.03 0 н/о н/о +11.0 +0.6 49
20 24.03 0 н/о н/о +9.4 +1.7 59
22 24.03 0 н/о н/о

 

Местоположение метеостанции Мартина-Франка (Италия): широта 40.63 долгота 17.22 высота над уровнем моря 413 м.

В архиве по умолчанию представлена погода в Мартина-Франка за последнюю неделю. Архивные данные за месяц целиком и за предыдущие месяцы, начиная с января 2011 года, Вы можете получить, выбрав интересующий диапазон дат из раскрывающегося списка и нажав кнопку "Ввод!".


*Определитесь, кто Вы:
робот инопланетянин человек

Внимание! Время в таблицах - всемирное. Для получения местного времени необходимо прибавить поправку, которая равна 1 ч.

Смотрите также архив погоды в соседних городах и на ближайших метеорологических станциях:

Погода в Джоя-дель-Колле (Италия) (29 км)
Погода в Джинозе (Италия) (36 км)
Погода в Матере (Италия) (47 км)
Погода в Бари (Италия) (62 км)
Погода в Бриндиси (Италия) (62 км)
Погода в Бари аэропорту (Италия) (67 км)
Погода в Лечче (Италия) (90 км)
Погода в Латронико (Италия) (119 км)
Погода в Отранто (Италия) (122 км)
Погода в Санта-Мария-ди-Леуке (Италия) (132 км)

Пояснения к столбцам:

Ветер - указаны скорость ветра в м/с - средняя за 10 мин, порывы в срок и между сроками (в фигурных скобках) и направление, откуда дует ветер: С - северный, СВ - северо-восточный, В - восточный, ЮВ - юго-восточный, Ю - южный, ЮЗ - юго-западный, З - западный, СЗ - северо-западный.
Видимость - горизонтальная дальность видимости в метрах или километрах. При видимости от 1 до 10 км при отсутствии осадков обычно наблюдается дымка, при ухудшении видимости до 1 км и менее - туман. В сухую погоду видимость может ухудшаться дымом, пылью или мглою.
Явления - указаны атмосферные явления, наблюдавшиеся в срок или в последний час перед сроком; фигурными скобками обозначены явления, наблюдавшиеся между сроками (за 1-3 часа до срока); квадратными скобками обозначены град или гололедные отложения с указанием их диаметра в мм.
Облачность - указаны через наклонную черту общая и нижняя облачность в баллах и высота нижней границы облаков в метрах; квадратными скобками обозначены формы облаков: Ci - перистые, Cs - перисто-слоистые, Cc - перисто-кучевые, Ac - высококучевые, As - высокослоистые, Sc - слоисто-кучевые, Ns - слоисто-дождевые, Cu - кучевые, Cb - кучево-дождевые. Подробнее классификацию облаков см. в Атласе облаков (PDF).
T - Температура воздуха - температура, измеренная на высоте 2 м над землей.
Td - Температура точки росы - температура, при понижении до которой содержащийся в воздухе водяной пар достигнет насыщения.
f - Относительная влажность воздуха - влажноcть воздуха, измеренная на высоте 2 м над землей.
Te - Эффективная температура - температура, которую ощущает одетый по сезону человек в тени. Характеристика душности погоды. При расчете учитывается влияние влажности воздуха и скорости ветра на теплоощущения человека.
Tes - Эффективная температура на солнце - температура, которую ощущает человек, с поправкой на солнечный нагрев. Характеристика знойности погоды. Зависит от высоты солнца над горизонтом, облачности и скорости ветра. Ночью, в пасмурную погоду, а также при ветре 12 м/с и более поправка равна нулю.
P - Атмосферное давление - приведенное к уровню моря атмосферное давление.
Po - Атмосферное давление - измеренное на уровне метеостанции атмосферное давление.
Tmin - Минимальная температура - минимум температуры воздуха на высоте 2 м над землей.
Tmax - Максимальная температура - максимум температуры воздуха на высоте 2 м над землей.
R - Количество осадков - Количество выпавших осадков за период времени, мм. При наведении курсора мыши на число - период времени, за который выпало указанное количество осадков.
R24 - Количество осадков - Количество выпавших осадков за 24 часа, мм.
S - Снежный покров - Высота снежного покрова, см. При наведении курсора мыши на число - состояние снежного покрова и степень покрытия местности в баллах.